Stations météo

réclame
Mon MeteoGroup
Oostende Airport, Belgique (6407): Température de l'air & dewpoint: 17.09.2017 23:00:00 - 23.09.2017 23:00:00 (CEST)Oostende Airport, Belgique (6407): Vitesse du vent & gusts: 17.09.2017 23:00:00 - 23.09.2017 23:00:00 (CEST)Oostende Airport, Belgique (6407): Direction du vent: 17.09.2017 23:00:00 - 23.09.2017 23:00:00 (CEST)Oostende Airport, Belgique (6407): reduced air pressure: 17.09.2017 23:00:00 - 23.09.2017 23:00:00 (CEST)Oostende Airport, Belgique (6407): visibility: 17.09.2017 23:00:00 - 23.09.2017 23:00:00 (CEST)
Date & Time tt [°C] td [°C] ff [km/h] ff [knt] fx [km/h] fx [knt] dd ppp [hPa] vv [km]
23.09.2017 23:00:00 10,6 8,2 11 6 - - E 1022,7 10
23.09.2017 22:00:00 12,2 9,4 11 6 18 10 E 1022,8 10
23.09.2017 21:00:00 12,5 9,8 13 7 14 8 E 1022,7 10
23.09.2017 20:00:00 14,0 10,2 8 4 - - ENE 1022,6 10
23.09.2017 19:00:00 15,2 11,7 9 5 18 10 NNE 1022,6 10
23.09.2017 18:00:00 15,7 11,5 13 7 22 12 NNE 1022,7 10
23.09.2017 17:00:00 16,2 11,3 18 10 - - N 1023,1 10
23.09.2017 16:00:00 16,3 11,0 15 8 18 10 N 1023,7 10
23.09.2017 15:00:00 16,3 10,5 11 6 18 10 N 1024,2 10
23.09.2017 14:00:00 17,6 10,5 2 1 - - - 1024,4 10
23.09.2017 13:00:00 16,4 10,9 5 3 14 8 - 1024,6 10
23.09.2017 12:00:00 15,6 10,0 9 5 14 8 S 1024,8 10
23.09.2017 11:00:00 14,7 10,4 11 6 - - S 1024,7 10
23.09.2017 10:00:00 12,6 9,4 8 4 11 6 SSE 1024,6 10
23.09.2017 09:00:00 8,8 7,0 8 4 14 8 SSE 1024,4 7
23.09.2017 08:00:00 7,0 5,8 8 4 - - SE 1024,4 6
23.09.2017 07:00:00 6,9 5,6 5 3 7 4 SE 1024,2 6
23.09.2017 06:00:00 7,2 5,7 4 2 7 4 SSE 1024,0 6
23.09.2017 05:00:00 7,6 6,1 5 3 - - SSE 1024,1 5
23.09.2017 04:00:00 7,4 6,2 4 2 7 4 S 1024,4 5
23.09.2017 03:00:00 7,7 6,6 5 3 7 4 SSE 1024,4 6
23.09.2017 02:00:00 7,6 6,4 4 2 - - S 1024,4 6
23.09.2017 01:00:00 7,4 6,0 5 3 7 4 SE 1024,1 8
23.09.2017 00:00:00 8,8 7,4 4 2 7 4 S 1024,2 10
22.09.2017 23:00:00 9,0 7,2 4 2 - - SSE 1024,2 10
22.09.2017 22:00:00 9,5 8,0 5 3 7 4 SSW 1023,8 10
22.09.2017 21:00:00 11,5 9,3 2 1 7 4 - 1023,5 10
22.09.2017 20:00:00 13,6 9,5 2 1 - - NW 1023,2 10
22.09.2017 19:00:00 15,0 9,9 8 4 14 8 NW 1022,9 10
22.09.2017 18:00:00 15,7 10,0 9 5 18 10 NNW 1022,5 10
22.09.2017 17:00:00 16,0 10,3 13 7 - - NW 1022,5 10
22.09.2017 16:00:00 16,3 11,0 13 7 22 12 NW 1022,4 10
22.09.2017 15:00:00 16,2 10,5 15 8 22 12 NW 1022,3 10
22.09.2017 14:00:00 16,3 11,6 15 8 - - NW 1022,2 10
22.09.2017 13:00:00 16,6 12,1 15 8 22 12 NW 1021,8 10
22.09.2017 12:00:00 16,3 12,7 15 8 22 12 NW 1021,5 10
22.09.2017 11:00:00 15,8 13,1 13 7 - - NNW 1021,2 10
22.09.2017 10:00:00 15,4 12,7 13 7 18 10 NNW 1020,7 10
22.09.2017 09:00:00 14,5 12,4 13 7 18 10 NNW 1020,1 9
22.09.2017 08:00:00 13,2 11,9 8 4 - - SSW 1019,8 4,5
22.09.2017 07:00:00 13,2 11,7 4 2 7 4 SSW 1019,4 6
22.09.2017 06:00:00 13,1 11,7 5 3 11 6 S 1019,4 7
22.09.2017 05:00:00 13,2 11,5 8 4 - - SW 1019,5 7
22.09.2017 04:00:00 12,9 11,2 4 2 7 4 - 1019,2 10
22.09.2017 03:00:00 12,8 10,6 5 3 7 4 SSW 1019,4 10
22.09.2017 02:00:00 12,6 10,3 5 3 - - SSW 1019,2 10
22.09.2017 01:00:00 12,4 9,9 8 4 14 8 SW 1018,9 10
22.09.2017 00:00:00 12,6 10,1 13 7 14 8 SSE 1018,6 10
21.09.2017 23:00:00 12,4 9,8 11 6 - - SSE 1018,7 10
21.09.2017 22:00:00 12,7 9,9 9 5 11 6 SSE 1018,6 10
21.09.2017 21:00:00 13,5 10,7 9 5 14 8 SSE 1018,5 10
21.09.2017 20:00:00 14,8 10,9 11 6 - - SSE 1018,3 10
21.09.2017 19:00:00 17,2 11,0 9 5 25 14 S 1017,8 10
21.09.2017 18:00:00 18,1 9,9 15 8 25 14 S 1017,8 10
21.09.2017 17:00:00 18,5 9,5 18 10 - - S 1017,8 10
21.09.2017 16:00:00 18,8 10,2 18 10 32 18 S 1017,9 10
21.09.2017 15:00:00 18,0 10,0 18 10 - - S - 10
21.09.2017 14:00:00 18,0 10,0 18 10 - - S - 10
21.09.2017 13:00:00 17,0 10,0 21 11 - - S - 10
21.09.2017 12:00:00 16,0 10,0 18 10 - - S - 10
21.09.2017 11:00:00 13,9 9,5 15 8 - - S 1019,1 10
21.09.2017 10:00:00 11,8 8,8 15 8 25 14 S 1019,0 10
21.09.2017 09:00:00 10,2 7,9 15 8 18 10 SSE 1018,8 10
21.09.2017 08:00:00 9,5 7,4 13 7 - - SSE 1018,6 10
21.09.2017 07:00:00 9,5 7,5 13 7 18 10 S 1018,6 10
21.09.2017 06:00:00 9,7 7,7 9 5 18 10 S 1018,7 10
21.09.2017 05:00:00 10,1 7,9 13 7 - - S 1018,9 10
21.09.2017 04:00:00 10,4 8,2 11 6 18 10 S 1019,3 10
21.09.2017 03:00:00 10,2 8,2 13 7 14 8 SSE 1019,4 10
21.09.2017 02:00:00 10,2 8,4 13 7 - - SSE 1019,6 10
21.09.2017 01:00:00 10,4 8,4 13 7 14 8 SSE 1019,6 10
21.09.2017 00:00:00 10,9 8,8 13 7 14 8 SSE 1019,7 10
20.09.2017 23:00:00 11,0 9,0 11 6 - - SSE 1019,7 10
20.09.2017 22:00:00 12,5 10,5 9 5 11 6 SSE 1020,0 10
20.09.2017 21:00:00 13,7 11,5 8 4 14 8 SSE 1020,1 10
20.09.2017 20:00:00 14,4 11,5 11 6 - - SSW 1019,8 10
20.09.2017 19:00:00 14,8 11,4 21 11 32 18 SW 1019,9 10
20.09.2017 18:00:00 16,3 11,7 21 11 29 16 SSW 1020,0 10
20.09.2017 17:00:00 15,7 10,5 16 9 - - SW 1020,5 10
20.09.2017 16:00:00 16,7 12,0 22 12 29 16 SW 1020,6 10
20.09.2017 15:00:00 16,2 11,4 16 9 29 16 SSW 1020,8 10
20.09.2017 14:00:00 16,8 11,6 18 10 - - SW 1020,9 10
20.09.2017 13:00:00 15,3 11,4 13 7 25 14 WSW 1021,1 10
20.09.2017 12:00:00 15,0 11,9 16 9 25 14 SSW 1021,3 10
20.09.2017 11:00:00 13,9 11,3 13 7 - - SSW 1021,3 10
20.09.2017 10:00:00 10,8 8,7 11 6 18 10 SSW 1021,4 10
20.09.2017 09:00:00 8,9 7,1 8 4 14 8 SSW 1021,2 7
20.09.2017 08:00:00 7,4 5,9 9 5 - - SSW 1021,0 7
20.09.2017 07:00:00 7,2 5,6 9 5 14 8 SSW 1020,9 7
20.09.2017 06:00:00 7,8 6,2 9 5 11 6 SSW 1021,0 7
20.09.2017 05:00:00 8,0 6,4 8 4 - - SSW 1021,2 7
20.09.2017 04:00:00 9,3 7,7 11 6 14 8 SSW 1021,6 7
20.09.2017 03:00:00 9,8 8,1 11 6 14 8 SSW 1021,9 8
20.09.2017 02:00:00 9,8 8,0 11 6 - - SSW 1022,0 10
20.09.2017 01:00:00 9,9 8,2 9 5 14 8 SW 1022,1 10
20.09.2017 00:00:00 10,9 8,3 9 5 18 10 SW 1022,2 10
19.09.2017 23:00:00 12,8 8,4 15 8 - - WNW 1022,4 10
19.09.2017 22:00:00 13,6 10,3 13 7 22 12 WNW 1022,4 10
19.09.2017 21:00:00 13,7 10,9 16 9 22 12 NW 1022,1 10
19.09.2017 20:00:00 13,8 11,2 15 8 - - WNW 1021,7 10
19.09.2017 19:00:00 12,3 9,9 8 4 29 16 NNW 1021,7 9
19.09.2017 18:00:00 13,8 12,1 22 12 32 18 NW 1021,4 10
19.09.2017 17:00:00 15,8 10,0 11 6 - - NW 1021,0 10
19.09.2017 16:00:00 16,0 10,7 13 7 22 12 WNW 1020,9 10
19.09.2017 15:00:00 16,0 10,5 15 8 25 14 WNW 1020,8 10
19.09.2017 14:00:00 16,2 11,4 13 7 - - NNW 1020,4 10
19.09.2017 13:00:00 15,5 10,8 16 9 32 18 N 1020,3 10
19.09.2017 12:00:00 15,0 12,0 22 12 36 19 NW 1020,0 10
19.09.2017 11:00:00 12,7 10,0 5 3 - - WNW 1019,7 10
19.09.2017 10:00:00 14,2 10,3 18 10 25 14 NNW 1018,9 10
19.09.2017 09:00:00 12,3 9,3 15 8 25 14 NW 1018,2 10
19.09.2017 08:00:00 12,3 9,2 16 9 - - NW 1018,0 10
19.09.2017 07:00:00 11,4 8,9 18 10 36 19 N 1017,8 6
19.09.2017 06:00:00 12,3 9,6 11 6 36 19 N 1017,4 10
19.09.2017 05:00:00 13,3 10,0 22 12 - - NW 1017,1 10
19.09.2017 04:00:00 12,8 9,6 26 14 36 19 NNW 1017,1 10
19.09.2017 03:00:00 12,8 10,3 24 13 40 21 NNW 1017,3 8
19.09.2017 02:00:00 13,4 9,8 26 14 - - NW 1016,9 10
19.09.2017 01:00:00 13,7 10,3 22 12 36 19 NW 1017,0 10
19.09.2017 00:00:00 12,6 9,1 8 4 29 16 NW 1017,0 10
18.09.2017 23:00:00 13,3 9,9 18 10 - - NNW 1017,1 10
18.09.2017 22:00:00 13,8 10,1 24 13 32 18 NW 1016,9 10
18.09.2017 21:00:00 13,3 10,1 18 10 36 19 NNW 1016,7 10
18.09.2017 20:00:00 13,0 10,6 24 13 - - NW 1016,0 10
18.09.2017 19:00:00 13,0 10,4 21 11 32 18 NW 1016,0 10
18.09.2017 18:00:00 13,1 10,9 18 10 36 19 NW 1015,7 10
18.09.2017 17:00:00 13,3 11,0 15 8 - - WNW 1015,6 10
18.09.2017 16:00:00 12,3 10,4 15 8 25 14 W 1015,5 8
18.09.2017 15:00:00 12,6 10,1 13 7 25 14 NNW 1015,7 8
18.09.2017 14:00:00 13,0 10,0 13 7 - - WNW - 10
18.09.2017 13:00:00 12,1 10,1 16 9 22 12 W 1015,1 10
18.09.2017 12:00:00 10,7 9,3 13 7 18 10 SW 1015,0 10
18.09.2017 11:00:00 11,2 9,4 9 5 - - W 1014,9 8
18.09.2017 10:00:00 12,3 9,9 15 8 32 18 WNW 1014,5 8
18.09.2017 09:00:00 13,1 9,7 18 10 25 14 WNW 1014,1 10
18.09.2017 08:00:00 11,7 9,2 11 6 - - W 1014,0 10
18.09.2017 07:00:00 12,6 9,3 13 7 22 12 WNW 1013,8 10
18.09.2017 06:00:00 10,7 9,1 13 7 18 10 SW 1013,9 10
18.09.2017 05:00:00 10,0 8,6 8 4 - - SSW 1013,8 10
18.09.2017 04:00:00 11,2 9,3 9 5 14 8 SW 1014,1 10
18.09.2017 03:00:00 11,3 9,2 5 3 32 18 S 1014,3 10
18.09.2017 02:00:00 10,6 8,9 11 6 - - SW 1013,8 10
18.09.2017 01:00:00 10,0 8,3 13 7 14 8 SW 1013,9 10
18.09.2017 00:00:00 10,3 9,0 5 3 29 16 S 1014,1 10
17.09.2017 23:00:00 11,5 9,9 16 9 - - E 1014,1 10

tt = Température de l'air
td = dewpoint
ff = Vitesse du vent
fx = gusts
dd = Direction du vent
ppp = reduced air pressure
vv = visibility

stations d'obs. à proximité